SCOUT A DEB, 2994

Orbit data source: Space-Track

SCOUT A DEB, 2994 is space debris in LEO originally from a launch on Mon, 25 Sep 1967 UTC launched from the Air Force Western Test Range (AFWTR). Debris objects in space refer to the collection of defunct objects orbiting the Earth. Examples of debris include non-operational satellites, rocket bodies, and fragments generated from explosions, collisions, or faulty payload assembly.

Loading next visibility...
Identifier
2994, 1967-092C
Orbit
LEO
Last TLE update
1 day ago
Origin
Manufacturer
Unknown
Mission
Spacecraft
Bus & Motor
Unknown
Mass
Unknown
Launch date (UTC)
1967-09-25 (58 years ago)
Launch vehicle
Unknown
Launch site
Air Force Western Test Range (AFWTR)
Object type
Payload
Rocket body
Debris
Shape & HBR
Unknown
Radar Cross Section
Small (<0.1 m²)

Expand to show TLE details & history

TLE from 1 day ago
0 SCOUT A DEB
1 02994U 67092C   25199.42621981  .00000339  00000-0  22610-3 0  9996
2 02994  89.4371   5.6535 0089440 170.2910 190.0023 13.97086972928171
Epoch: 2025-07-18T10:13Z
TLE epoch observation values (Epoch: 2025-07-18T10:13:45.391Z)
Latitude
-0.00003°
Longitude
-84.26348°
Altitude
971.093 km
Speed
7.334 km/s
True Right ascension
00h 22m 36s
True Declination
0° 00' 00"
Sunlit
Object was in daylight at epoch
Visualization orbit readout
Latitude
56.10584°
Longitude
94.83986°
Altitude
865.504 km
Speed
7.449 km/s
Apparent Right ascension
11h 59m 10s
Apparent Declination
12° 08' 26"
Sunlit
Object is in daylight
Visualization observer readout
Local Sidereal Time
23:42:46
Azimuth
354.926° N
Elevation
-37.804°
Doppler factor
1
Orbital elements
Apogee altitude
965.985 km
Perigee altitude
835.778 km
Semi-major axis
7,279.019 km
Eccentricity
0.00894
Inclination
89.4371°
RAAN
5.6535°
Arg. of periapsis
170.291°
True anomaly
189.82623°
Mean anomaly
190.0023°
Eccentric anomaly
189.91407°
Mean motion
3.49489 °/min
Orbital period
103.01 mins
BSTAR
0.0002261
Loading maneuver chart data...
Loading SW <> Apogee altitude chart data...
Loading historical data...
Loading historical data...
Loading historical data...
Loading historical data...
Loading historical data...
Loading historical data...
Loading historical data...
|